Fortuna, CA

10:16 PM PST on December 10, 2019 (GMT -0800)
Rohnerville

Weather History for KFOT - September, 2019

Change the Weather History Date:

Sunday, September 15, 2019

  Actual Average (KEKA) Record (KEKA)
Temperature  
Mean Temperature 65 °F -  
Max Temperature 77 °F 63 °F 74 °F (1899)
Min Temperature 53 °F 50 °F 39 °F (1895)
Growing Degree Days 15 (Base 50)    
Moisture  
Dew Point 57 °F    
Average Humidity 89    
Maximum Humidity 100    
Minimum Humidity 50    
Precipitation  
Precipitation 0.23 in - - ()
Sea Level Pressure  
Sea Level Pressure 29.89 in    
Wind  
Wind Speed 4 mph ()    
Max Wind Speed 17 mph    
Max Gust Speed 21 mph    
Visibility 7.0 miles    
Events      
Averages and records for this station are not official NWS values.
T = Trace of Precipitation, MM = Missing Value Source: Averaged Metar Reports

Daily Weather History Graph

Daily Weather History Graph

Search for Another Location

Airport or City:

Astronomy

Sep. 15, 2019 Rise Set
Actual Time 6:57 AM PDT 7:25 PM PDT
Civil Twilight 6:29 AM PDT 7:52 PM PDT
Nautical Twilight 5:57 AM PDT 8:25 PM PDT
Astronomical Twilight 5:24 AM PDT 8:58 PM PDT
Moon 8:35 PM PDT (9/15) 8:12 AM PDT (9/15)
Length of Visible Light 13h 23m
Length of Day
12h 28m
Full, 98% of the Moon is Illuminated
Sep 15
Full
Sep 21
Last Quarter
Sep 28
New
Oct 5
First Quarter
Oct 13
Full

Hourly Weather History & Observations

Time (PDT) Temp. Dew Point Humidity Pressure Visibility Wind Dir Wind Speed Gust Speed Precip Events Conditions
12:15 AM 57.2 °F 57.2 °F 100% 29.96 in 10.0 mi Calm Calm - N/A   Clear
12:35 AM 57.2 °F 55.4 °F 94% 29.95 in 10.0 mi NW 3.5 mph - N/A   Clear
12:55 AM 57.2 °F 55.4 °F 94% 29.96 in 6.0 mi NW 4.6 mph - N/A   Scattered Clouds
1:15 AM 57.2 °F 57.2 °F 100% 29.96 in 10.0 mi Calm Calm - N/A   Overcast
1:35 AM 57.2 °F 57.2 °F 100% 29.96 in 10.0 mi Calm Calm - N/A   Overcast
1:55 AM 57.2 °F 57.2 °F 100% 29.95 in 8.0 mi Calm Calm - N/A   Overcast
2:15 AM 57.2 °F 57.2 °F 100% 29.95 in 10.0 mi Calm Calm - N/A   Overcast
2:35 AM 57.2 °F 57.2 °F 100% 29.95 in 10.0 mi Calm Calm - N/A   Overcast
2:55 AM 57.2 °F 57.2 °F 100% 29.94 in 10.0 mi West 4.6 mph - N/A   Overcast
3:15 AM 57.2 °F 57.2 °F 100% 29.94 in 10.0 mi WNW 5.8 mph - N/A   Overcast
3:35 AM 55.4 °F 55.4 °F 100% 29.94 in 3.0 mi WNW 4.6 mph - N/A   Overcast
3:55 AM 57.2 °F 55.4 °F 94% 29.94 in 2.0 mi Calm Calm - N/A   Overcast
4:15 AM 57.2 °F 57.2 °F 100% 29.93 in 10.0 mi Calm Calm - N/A   Mostly Cloudy
4:35 AM 57.2 °F 57.2 °F 100% 29.93 in 10.0 mi WSW 3.5 mph - N/A   Mostly Cloudy
4:55 AM 57.2 °F 55.4 °F 94% 29.93 in 10.0 mi SW 3.5 mph - N/A   Partly Cloudy
5:15 AM 57.2 °F 55.4 °F 94% 29.92 in 0.8 mi SW 3.5 mph - N/A   Unknown
5:35 AM 55.4 °F 55.4 °F 100% 29.92 in 0.2 mi SSW 3.5 mph - N/A   Unknown
5:55 AM 53.6 °F 53.6 °F 100% 29.92 in 0.2 mi SSE 3.5 mph - N/A   Mostly Cloudy
6:15 AM 53.6 °F 53.6 °F 100% 29.92 in 0.2 mi SSE 5.8 mph - N/A   Mostly Cloudy
6:35 AM 53.6 °F 53.6 °F 100% 29.93 in 0.2 mi SSE 5.8 mph - N/A   Mostly Cloudy
6:55 AM 53.6 °F 53.6 °F 100% 29.92 in 0.8 mi SSE 5.8 mph - N/A   Mostly Cloudy
7:15 AM 53.6 °F 51.8 °F 94% 29.93 in 3.0 mi SE 6.9 mph - N/A   Scattered Clouds
7:35 AM 53.6 °F 53.6 °F 100% 29.93 in 5.0 mi SE 6.9 mph - N/A   Partly Cloudy
7:55 AM 53.6 °F 53.6 °F 100% 29.93 in 1.8 mi SE 6.9 mph - N/A   Clear
8:15 AM 55.4 °F 55.4 °F 100% 29.93 in 0.5 mi SE 8.1 mph - N/A   Mostly Cloudy
8:35 AM 55.4 °F 55.4 °F 100% 29.93 in 0.8 mi ESE 11.5 mph - N/A   Overcast
8:55 AM 57.2 °F 57.2 °F 100% 29.92 in 10.0 mi ESE 10.4 mph - N/A   Overcast
9:15 AM 57.2 °F 57.2 °F 100% 29.92 in 10.0 mi ESE 10.4 mph - N/A   Mostly Cloudy
9:35 AM 62.6 °F 57.2 °F 82% 29.92 in 10.0 mi ESE 9.2 mph - N/A   Partly Cloudy
9:55 AM 64.4 °F 55.4 °F 73% 29.91 in 10.0 mi SE 6.9 mph - N/A   Clear
10:15 AM 66.2 °F 55.4 °F 68% 29.91 in 10.0 mi SE 6.9 mph - N/A   Partly Cloudy
10:35 AM 68.0 °F 55.4 °F 64% 29.90 in 10.0 mi SSE 4.6 mph - N/A   Partly Cloudy
10:55 AM 68.0 °F 55.4 °F 64% 29.90 in 10.0 mi Calm Calm - N/A   Clear
11:15 AM 68.0 °F 55.4 °F 64% 29.89 in 10.0 mi Calm Calm - N/A   Clear
11:35 AM 71.6 °F 55.4 °F 57% 29.89 in 10.0 mi North 3.5 mph - N/A   Partly Cloudy
11:55 AM 71.6 °F 55.4 °F 57% 29.89 in 10.0 mi NW 6.9 mph - N/A   Mostly Cloudy
12:15 PM 71.6 °F 55.4 °F 57% 29.89 in 10.0 mi WNW 3.5 mph - N/A   Overcast
12:35 PM 73.4 °F 57.2 °F 57% 29.89 in 10.0 mi NNE 3.5 mph - N/A   Overcast
1:15 PM 75.2 °F 57.2 °F 53% 29.87 in 9.0 mi SSE 3.5 mph - N/A   Partly Cloudy
1:35 PM 77.0 °F 57.2 °F 50% 29.86 in 10.0 mi NW 3.5 mph - N/A   Scattered Clouds
1:55 PM 75.2 °F 57.2 °F 53% 29.85 in 10.0 mi North 3.5 mph - N/A   Mostly Cloudy
2:15 PM 75.2 °F 57.2 °F 53% 29.85 in 10.0 mi NNW 10.4 mph - N/A   Overcast
2:35 PM 75.2 °F 59.0 °F 57% 29.85 in 10.0 mi WNW 10.4 mph - N/A   Mostly Cloudy
2:55 PM 73.4 °F 59.0 °F 61% 29.85 in 10.0 mi West 8.1 mph - N/A   Mostly Cloudy
3:15 PM 71.6 °F 59.0 °F 64% 29.85 in 10.0 mi NW 9.2 mph - N/A   Overcast
3:35 PM 66.2 °F 62.6 °F 88% 29.85 in 1.5 mi North 3.5 mph - 0.03 in   Mostly Cloudy
3:55 PM 66.2 °F 62.6 °F 88% 29.85 in 10.0 mi North 6.9 mph - 0.03 in   Mostly Cloudy
4:15 PM 66.2 °F 64.4 °F 94% 29.85 in 4.0 mi North 9.2 mph - 0.01 in   Mostly Cloudy
4:35 PM 64.4 °F 62.6 °F 94% 29.86 in 5.0 mi North 5.8 mph - 0.01 in   Mostly Cloudy
4:55 PM 64.4 °F 62.6 °F 94% 29.86 in 1.8 mi WNW 4.6 mph - 0.04 in   Mostly Cloudy
5:15 PM 64.4 °F 62.6 °F 94% 29.85 in 7.0 mi North 5.8 mph - N/A   Scattered Clouds
5:35 PM 64.4 °F 62.6 °F 94% 29.86 in 10.0 mi North 9.2 mph - N/A   Mostly Cloudy
5:55 PM 64.4 °F 62.6 °F 94% 29.86 in 10.0 mi NNW 9.2 mph - N/A   Mostly Cloudy
6:15 PM 62.6 °F 62.6 °F 100% 29.86 in 10.0 mi NW 8.1 mph - N/A   Overcast
6:35 PM 62.6 °F 60.8 °F 94% 29.86 in 10.0 mi NNW 9.2 mph - N/A   Overcast
6:50 PM 62.6 °F 60.8 °F 94% 29.86 in 8.0 mi NNW 9.2 mph - 0.01 in   Overcast
7:15 PM 60.8 °F 59.0 °F 94% 29.85 in 8.0 mi NW 6.9 mph - N/A   Overcast
7:35 PM 60.8 °F 59.0 °F 94% 29.85 in 10.0 mi NW 9.2 mph - N/A   Overcast
7:55 PM 59.0 °F 59.0 °F 100% 29.85 in 9.0 mi NW 8.1 mph - N/A   Overcast
8:15 PM 59.0 °F 59.0 °F 100% 29.85 in 5.0 mi WNW 8.1 mph - N/A   Overcast
8:35 PM 59.0 °F 59.0 °F 100% 29.85 in 4.0 mi WNW 8.1 mph - 0.02 in   Overcast
8:55 PM 59.0 °F 59.0 °F 100% 29.86 in 0.8 mi NW 17.3 mph 20.7 mph 0.06 in   Overcast
9:15 PM 55.4 °F 55.4 °F 100% 29.86 in 4.0 mi NW 8.1 mph - 0.05 in   Overcast
9:35 PM 55.4 °F 55.4 °F 100% 29.86 in 4.0 mi WNW 6.9 mph - 0.06 in   Overcast
9:55 PM 55.4 °F 55.4 °F 100% 29.87 in 7.0 mi West 5.8 mph - 0.07 in   Overcast
10:15 PM 55.4 °F 55.4 °F 100% 29.87 in 7.0 mi WNW 6.9 mph - N/A   Overcast
10:35 PM 55.4 °F 55.4 °F 100% 29.87 in 8.0 mi WNW 4.6 mph - N/A   Mostly Cloudy
10:55 PM 55.4 °F 55.4 °F 100% 29.87 in 5.0 mi West 4.6 mph - 0.01 in   Mostly Cloudy
11:15 PM 57.2 °F 55.4 °F 94% 29.87 in 5.0 mi West 3.5 mph - N/A   Overcast
11:35 PM 55.4 °F 55.4 °F 100% 29.87 in 8.0 mi SW 3.5 mph - N/A   Overcast
11:55 PM 57.2 °F 55.4 °F 94% 29.88 in 6.0 mi West 3.5 mph - 0.01 in   Mostly Cloudy